Terminal Aerodrome Forecast
Issued by NWS Green Bay, WI

Home | Current Version | Previous Version | Graphics & Text | Print | Product List | Glossary On
Versions: 1 2 3 4 5 6 7 8 9 10 11 12 13 14 15 16 17 18 19 20 21 22 23 24 25 26 27 28 29 30 31 32 33 34 35 36 37 38 39 40 41 42 43 44 45 46 47
000
FTUS43 KGRB 280950 AAB
TAFGRB
TAF AMD
KGRB 280950Z 2810/2906 36003KT P6SM SCT025
      TEMPO 2810/2813 2SM BR SCT005 BKN025
     FM281400 03008KT P6SM FEW008
     FM281600 04008G15KT P6SM FEW020
     FM282300 08004KT P6SM SKC=

USA.gov is the U.S. government's official web portal to all federal, state and local government web resources and services.